, AK

(GMT )
Deadhorse

Weather History for PASC - December, 2011

Change the Weather History Date:

Tuesday, December 6, 2011

  Actual Average Record
Temperature  
Mean Temperature -12 °F -  
Max Temperature -5 °F -1 °F 21 °F (1986)
Min Temperature -23 °F -11 °F -42 °F (2005)
Degree Days  
Heating Degree Days 78    
Moisture  
Dew Point -18 °F    
Average Humidity 77    
Maximum Humidity 84    
Minimum Humidity 70    
Precipitation  
Precipitation 0.00 in - - ()
Sea Level Pressure  
Sea Level Pressure 30.43 in    
Wind  
Wind Speed 15 mph (SW)    
Max Wind Speed 18 mph    
Max Gust Speed -    
Visibility 8 miles    
Events Snow    
Averages and records for this station are not official NWS values.
T = Trace of Precipitation, MM = Missing Value Source: NWS Daily Summary

Daily Weather History Graph

Daily Weather History Graph

Search for Another Location

Airport or City:

Trip Planner

Search our weather history database for the weather conditions in past years. The results will help you decide how hot, cold, wet, or windy it might be!

Date:

Astronomy

Dec. 31, 1969 Rise Set
Actual Time Sun does not set Sun does not set
Civil Twilight 10:23 AM AKST 3:05 PM AKST
Nautical Twilight 8:41 AM AKST 4:48 PM AKST
Astronomical Twilight 7:22 AM AKST 6:06 PM AKST
Moon 12:25 PM AKST (12/6) 6:55 AM AKST (12/6)
Length of Visible Light 4h 41m
Length of Day
0h 00m
Waxing Gibbous, 87% of the Moon is Illuminated
Dec 6
Waxing Gibbous
Dec 10
Full
Dec 17
Last Quarter
Dec 24
New
Dec 31
First Quarter

Hourly Weather History & Observations

Time (AKST) Temp. Windchill Dew Point Humidity Pressure Visibility Wind Dir Wind Speed Gust Speed Precip Events Conditions
12:53 AM -5.1 °F -26.6 °F -9.9 °F 80% 30.17 in 4.0 mi West 16.1 mph - 0.00 in Snow Light Snow
1:53 AM -7.1 °F -29.1 °F -11.9 °F 79% 30.22 in 3.0 mi West 16.1 mph - 0.00 in Snow Light Snow
2:19 AM -7.6 °F -31.1 °F -11.2 °F 84% 30.23 in 3.0 mi West 18.4 mph - 0.00 in Snow Light Snow
2:53 AM -8.0 °F -31.0 °F -13.0 °F 79% 30.26 in 6.0 mi WSW 17.3 mph - 0.00 in Snow Light Snow
3:53 AM -9.0 °F -31.7 °F -14.1 °F 79% 30.30 in 6.0 mi WSW 16.1 mph - 0.00 in Snow Light Snow
4:53 AM -8.0 °F -29.6 °F -13.0 °F 79% 30.33 in 6.0 mi West 15.0 mph - 0.00 in Snow Light Snow
5:53 AM -8.0 °F -30.3 °F -13.0 °F 79% 30.37 in 4.0 mi WSW 16.1 mph - 0.00 in Snow Light Snow
6:53 AM -9.0 °F -32.4 °F -14.1 °F 79% 30.40 in 4.0 mi WSW 17.3 mph - 0.00 in Snow Light Snow
7:53 AM -9.9 °F -32.8 °F -15.0 °F 78% 30.42 in 6.0 mi WSW 16.1 mph - 0.00 in Snow Light Snow
8:53 AM -11.0 °F -34.2 °F -17.0 °F 75% 30.45 in 7.0 mi WSW 16.1 mph - 0.00 in Snow Light Snow
9:53 AM -11.0 °F -34.9 °F -16.1 °F 78% 30.47 in 5.0 mi WSW 17.3 mph - 0.00 in Snow Light Snow
10:53 AM -11.0 °F -33.5 °F -16.1 °F 78% 30.49 in 10.0 mi WSW 15.0 mph - 0.00 in   Overcast
11:34 AM -11.2 °F -33.7 °F -16.6 °F 77% 30.49 in 10.0 mi SW 15.0 mph - N/A   Scattered Clouds
11:53 AM -11.0 °F -33.5 °F -17.0 °F 75% 30.51 in 10.0 mi SW 15.0 mph - N/A   Scattered Clouds
12:02 PM -11.2 °F -34.4 °F -16.6 °F 77% 30.50 in 10.0 mi WSW 16.1 mph - N/A   Overcast
12:53 PM -9.0 °F -31.7 °F -14.1 °F 79% 30.52 in 10.0 mi SW 16.1 mph - N/A   Overcast
1:53 PM -9.0 °F -30.9 °F -14.1 °F 79% 30.53 in 6.0 mi SW 15.0 mph - N/A   Haze
2:53 PM -11.0 °F -33.5 °F -16.1 °F 78% 30.53 in 10.0 mi SSW 15.0 mph - N/A   Overcast
3:51 PM -14.8 °F -39.1 °F -20.2 °F 77% 30.52 in 10.0 mi SW 16.1 mph - N/A   Scattered Clouds
3:53 PM -14.1 °F -37.4 °F -20.0 °F 75% 30.53 in 10.0 mi SW 15.0 mph - N/A   Scattered Clouds
4:53 PM -16.1 °F -36.2 °F -22.0 °F 74% 30.52 in 10.0 mi SSW 10.4 mph - N/A   Clear
5:53 PM -17.0 °F -37.3 °F -23.1 °F 74% 30.50 in 10.0 mi SW 10.4 mph - N/A   Clear
6:53 PM -18.9 °F -39.8 °F -25.1 °F 74% 30.51 in 10.0 mi WSW 10.4 mph - N/A   Clear
7:53 PM -20.0 °F -38.6 °F -27.0 °F 70% 30.51 in 10.0 mi WSW 8.1 mph - N/A   Clear
8:53 PM -20.9 °F -38.1 °F -27.9 °F 70% 30.48 in 10.0 mi SW 6.9 mph - N/A   Clear
9:53 PM -20.9 °F -31.7 °F -27.0 °F 73% 30.45 in 10.0 mi SSW 3.5 mph - N/A   Clear
10:53 PM -20.0 °F - -26.0 °F 74% 30.44 in 10.0 mi Calm Calm - N/A   Clear
11:53 PM -23.1 °F -40.7 °F -27.9 °F 78% 30.43 in 10.0 mi ESE 6.9 mph - N/A   Clear